Hillsdale, MI

10:19 PM EST on November 11, 2019 (GMT -0500)
Hillsdale Municipal

Weather History for KJYM - September, 2019

Change the Weather History Date:

Tuesday, September 3, 2019

  Actual Average Record
Temperature  
Mean Temperature 65 °F -  
Max Temperature 74 °F 78 °F 93 °F (1973)
Min Temperature 57 °F 54 °F 33 °F (2001)
Growing Degree Days 15 (Base 50)    
Moisture  
Dew Point 63 °F    
Average Humidity 87    
Maximum Humidity 98    
Minimum Humidity 71    
Precipitation  
Precipitation 0.00 in - - ()
Sea Level Pressure  
Sea Level Pressure 29.95 in    
Wind  
Wind Speed 4 mph ()    
Max Wind Speed 16 mph    
Max Gust Speed 23 mph    
Visibility 8.0 miles    
Events Fog , Rain    
Averages and records for this station are not official NWS values.
T = Trace of Precipitation, MM = Missing Value Source: Averaged Metar Reports

Daily Weather History Graph

Daily Weather History Graph

Search for Another Location

Airport or City:

Astronomy

Sep. 03, 2019 Rise Set
Actual Time 7:05 AM EDT 8:08 PM EDT
Civil Twilight 6:37 AM EDT 8:37 PM EDT
Nautical Twilight 6:03 AM EDT 9:11 PM EDT
Astronomical Twilight 5:27 AM EDT 9:46 PM EDT
Moon 12:02 PM EDT (9/3) 11:00 PM EDT (9/3)
Length of Visible Light 14h 00m
Length of Day
13h 02m
Waxing Crescent, 24% of the Moon is Illuminated
Sep 3
Waxing Crescent
Sep 5
First Quarter
Sep 14
Full
Sep 21
Last Quarter
Sep 28
New

Hourly Weather History & Observations

Time (EDT) Temp. Dew Point Humidity Pressure Visibility Wind Dir Wind Speed Gust Speed Precip Events Conditions
12:19 AM 60.1 °F 59.2 °F 97% 30.08 in 0.8 mi Calm Calm - N/A   Overcast
12:36 AM 60.6 °F 59.9 °F 97% 30.08 in 0.5 mi Calm Calm - N/A Fog Fog
12:55 AM 59.5 °F 58.6 °F 97% 30.08 in 1.5 mi East 3.5 mph - N/A   Mostly Cloudy
12:56 AM 59.5 °F 58.8 °F 97% 30.08 in 1.5 mi Calm Calm - N/A   Mostly Cloudy
1:15 AM 59.9 °F 59.2 °F 97% 30.07 in 2.5 mi Calm Calm - N/A   Mostly Cloudy
1:16 AM 59.9 °F 59.2 °F 97% 30.07 in 2.0 mi Calm Calm - N/A   Mostly Cloudy
1:35 AM 59.0 °F 58.1 °F 97% 30.06 in 0.8 mi Calm Calm - N/A   Mostly Cloudy
1:58 AM 59.2 °F 58.5 °F 97% 30.06 in 4.0 mi Calm Calm - N/A   Clear
2:16 AM 59.4 °F 58.6 °F 97% 30.06 in 0.5 mi Calm Calm - N/A Fog Fog
2:35 AM 59.2 °F 58.5 °F 97% 30.06 in 7.0 mi Calm Calm - N/A   Clear
2:36 AM 59.2 °F 58.5 °F 97% 30.06 in 7.0 mi Calm Calm - N/A   Clear
2:55 AM 57.9 °F 57.2 °F 97% 30.05 in 1.2 mi Calm Calm - N/A   Mostly Cloudy
3:00 AM 57.7 °F 57.0 °F 97% 30.05 in 2.0 mi Calm Calm - N/A   Mostly Cloudy
3:18 AM 57.4 °F 56.5 °F 97% 30.05 in 0.2 mi Calm Calm - N/A Fog Fog
3:36 AM 57.9 °F 57.2 °F 97% 30.05 in 3.0 mi Calm Calm - N/A   Mostly Cloudy
3:55 AM 59.4 °F 58.6 °F 97% 30.05 in 7.0 mi SSE 5.8 mph - N/A   Overcast
3:56 AM 59.5 °F 58.8 °F 97% 30.05 in 7.0 mi SSE 4.6 mph - N/A   Overcast
4:15 AM 61.3 °F 60.8 °F 98% 30.05 in 7.0 mi South 5.8 mph - N/A   Overcast
4:39 AM 61.0 °F 60.3 °F 97% 30.05 in 7.0 mi South 4.6 mph - N/A   Scattered Clouds
4:57 AM 60.8 °F 60.1 °F 97% 30.05 in 5.0 mi South 4.6 mph - N/A   Clear
5:15 AM 60.8 °F 59.9 °F 97% 30.05 in 4.0 mi South 4.6 mph - N/A   Clear
5:16 AM 60.8 °F 59.9 °F 97% 30.05 in 4.0 mi South 4.6 mph - N/A   Clear
5:35 AM 61.2 °F 60.4 °F 97% 30.05 in 5.0 mi SSE 4.6 mph - N/A   Mostly Cloudy
5:36 AM 61.2 °F 60.4 °F 97% 30.05 in 5.0 mi SSE 4.6 mph - N/A   Mostly Cloudy
5:55 AM 60.8 °F 60.1 °F 97% 30.04 in 5.0 mi South 4.6 mph - N/A   Scattered Clouds
6:18 AM 61.2 °F 60.3 °F 97% 30.04 in 5.0 mi South 3.5 mph - N/A   Scattered Clouds
6:36 AM 61.0 °F 60.1 °F 97% 30.04 in 5.0 mi South 4.6 mph - N/A   Scattered Clouds
6:55 AM 61.3 °F 60.6 °F 97% 30.04 in 7.0 mi SSE 5.8 mph - N/A   Clear
6:56 AM 61.5 °F 60.8 °F 97% 30.04 in 7.0 mi SSE 5.8 mph - N/A   Clear
7:15 AM 61.3 °F 60.4 °F 97% 30.05 in 5.0 mi South 4.6 mph - N/A   Scattered Clouds
7:16 AM 61.3 °F 60.4 °F 97% 30.05 in 5.0 mi South 4.6 mph - N/A   Scattered Clouds
7:39 AM 62.6 °F 61.7 °F 97% 30.05 in 10.0 mi South 4.6 mph - N/A   Scattered Clouds
7:57 AM 63.3 °F 62.2 °F 96% 30.05 in 10.0 mi South 4.6 mph - N/A   Scattered Clouds
8:15 AM 63.7 °F 62.6 °F 96% 30.04 in 10.0 mi South 3.5 mph - N/A   Scattered Clouds
8:35 AM 64.6 °F 63.0 °F 94% 30.04 in 10.0 mi South 5.8 mph - N/A   Clear
8:55 AM 64.8 °F 63.1 °F 94% 30.04 in 10.0 mi South 4.6 mph - N/A   Clear
9:18 AM 65.5 °F 63.3 °F 93% 30.05 in 10.0 mi SSW 5.8 mph - N/A   Clear
9:36 AM 66.4 °F 63.3 °F 90% 30.04 in 10.0 mi SW 6.9 mph - N/A   Clear
9:55 AM 67.3 °F 63.3 °F 87% 30.04 in 10.0 mi SW 8.1 mph - N/A   Clear
10:15 AM 67.3 °F 63.0 °F 86% 30.04 in 10.0 mi SSW 8.1 mph - N/A   Clear
10:39 AM 68.0 °F 63.7 °F 86% 30.03 in 10.0 mi SW 9.2 mph - N/A   Clear
10:57 AM 68.0 °F 63.3 °F 85% 30.01 in 10.0 mi SSW 10.4 mph 17.3 mph N/A   Scattered Clouds
11:15 AM 68.4 °F 63.5 °F 84% 29.97 in 10.0 mi South 8.1 mph 18.4 mph N/A   Scattered Clouds
11:16 AM 68.4 °F 63.5 °F 84% 29.97 in 10.0 mi South 8.1 mph 18.4 mph N/A   Scattered Clouds
11:35 AM 68.5 °F 63.5 °F 84% 29.95 in 10.0 mi South 9.2 mph 16.1 mph N/A Rain Light Rain
11:55 AM 69.4 °F 63.1 °F 80% 29.91 in 10.0 mi South 16.1 mph 23.0 mph N/A   Clear
12:18 PM 69.1 °F 62.8 °F 80% 29.91 in 10.0 mi South 11.5 mph 18.4 mph N/A   Clear
12:36 PM 68.9 °F 62.6 °F 80% 29.92 in 10.0 mi SSW 10.4 mph 18.4 mph N/A   Scattered Clouds
12:55 PM 69.3 °F 63.1 °F 81% 29.91 in 10.0 mi South 10.4 mph 19.6 mph N/A   Mostly Cloudy
12:56 PM 69.3 °F 63.3 °F 81% 29.91 in 10.0 mi SSW 11.5 mph 19.6 mph N/A   Mostly Cloudy
1:15 PM 69.8 °F 63.3 °F 80% 29.92 in 10.0 mi SSW 9.2 mph 16.1 mph N/A   Scattered Clouds
1:39 PM 70.3 °F 63.5 °F 79% 29.91 in 10.0 mi SSW 10.4 mph 17.3 mph N/A   Clear
1:57 PM 70.2 °F 63.7 °F 80% 29.91 in 10.0 mi SSW 10.4 mph - N/A   Clear
2:15 PM 70.3 °F 63.9 °F 80% 29.90 in 10.0 mi SSW 8.1 mph - N/A   Clear
2:16 PM 70.3 °F 63.9 °F 80% 29.90 in 10.0 mi SSW 8.1 mph - N/A   Clear
2:35 PM 70.7 °F 63.9 °F 79% 29.89 in 10.0 mi SSW 9.2 mph - N/A   Clear
2:36 PM 70.7 °F 64.0 °F 79% 29.89 in 10.0 mi SSW 10.4 mph - N/A   Clear
2:55 PM 71.1 °F 63.9 °F 78% 29.89 in 10.0 mi SSW 8.1 mph - N/A   Clear
3:18 PM 71.2 °F 63.9 °F 77% 29.88 in 10.0 mi SSW 9.2 mph 16.1 mph N/A   Clear
3:36 PM 71.6 °F 63.7 °F 76% 29.87 in 10.0 mi SSW 9.2 mph - N/A   Clear
3:55 PM 71.8 °F 63.7 °F 76% 29.87 in 10.0 mi SSW 8.1 mph - N/A   Clear
3:56 PM 71.8 °F 63.5 °F 75% 29.87 in 10.0 mi SSW 8.1 mph - N/A   Clear
4:15 PM 72.7 °F 63.9 °F 74% 29.87 in 10.0 mi SW 9.2 mph 18.4 mph N/A   Clear
4:39 PM 73.4 °F 63.3 °F 71% 29.86 in 10.0 mi SW 11.5 mph 16.1 mph N/A   Mostly Cloudy
4:57 PM 73.4 °F 64.2 °F 73% 29.85 in 10.0 mi SSW 6.9 mph - N/A   Scattered Clouds
5:15 PM 73.2 °F 63.7 °F 72% 29.86 in 10.0 mi SW 9.2 mph - N/A   Scattered Clouds
5:16 PM 73.0 °F 63.7 °F 72% 29.86 in 10.0 mi SW 8.1 mph - N/A   Scattered Clouds
5:35 PM 72.3 °F 63.5 °F 74% 29.88 in 10.0 mi WSW 10.4 mph - N/A   Mostly Cloudy
5:36 PM 72.1 °F 63.5 °F 74% 29.88 in 10.0 mi SW 9.2 mph - N/A   Overcast
5:55 PM 72.0 °F 63.9 °F 76% 29.89 in 10.0 mi SW 6.9 mph - N/A   Overcast
6:00 PM 72.0 °F 64.2 °F 77% 29.89 in 10.0 mi WSW 6.9 mph - N/A   Overcast
6:18 PM 72.1 °F 64.4 °F 77% 29.87 in 10.0 mi SW 10.4 mph - N/A   Overcast
6:36 PM 72.5 °F 64.6 °F 76% 29.83 in 10.0 mi South 9.2 mph - N/A   Scattered Clouds
6:55 PM 72.0 °F 64.9 °F 78% 29.86 in 10.0 mi SW 6.9 mph - N/A   Clear
7:15 PM 72.0 °F 65.3 °F 79% 29.84 in 10.0 mi SSW 6.9 mph - N/A   Scattered Clouds
7:16 PM 72.0 °F 65.3 °F 79% 29.85 in 10.0 mi SSW 6.9 mph - N/A   Scattered Clouds
7:39 PM 71.6 °F 65.7 °F 81% 29.84 in 10.0 mi South 5.8 mph - N/A   Mostly Cloudy
7:57 PM 71.6 °F 65.8 °F 82% 29.85 in 10.0 mi SSW 5.8 mph - N/A   Mostly Cloudy
8:15 PM 70.9 °F 66.2 °F 85% 29.83 in 10.0 mi South 8.1 mph - N/A   Mostly Cloudy
8:35 PM 70.7 °F 66.6 °F 87% 29.83 in 10.0 mi South 8.1 mph - N/A   Scattered Clouds
8:55 PM 70.7 °F 66.7 °F 87% 29.83 in 10.0 mi South 6.9 mph - N/A   Clear
9:18 PM 70.7 °F 66.9 °F 88% 29.83 in 10.0 mi SSW 5.8 mph - N/A   Clear
9:36 PM 70.9 °F 67.1 °F 88% 29.83 in 10.0 mi SSW 6.9 mph - N/A   Scattered Clouds
9:55 PM 71.1 °F 67.3 °F 88% 29.84 in 10.0 mi SW 6.9 mph - N/A   Mostly Cloudy
9:56 PM 71.1 °F 67.3 °F 88% 29.84 in 10.0 mi SW 6.9 mph - N/A   Mostly Cloudy
10:15 PM 71.6 °F 67.5 °F 87% 29.84 in 10.0 mi SSW 6.9 mph - N/A   Overcast
10:39 PM 71.6 °F 68.0 °F 88% 29.83 in 10.0 mi SSW 8.1 mph - N/A   Mostly Cloudy
10:57 PM 72.0 °F 68.4 °F 88% 29.83 in 10.0 mi SSW 10.4 mph - N/A   Overcast
11:15 PM 72.7 °F 68.9 °F 88% 29.82 in 10.0 mi SW 9.2 mph 19.6 mph N/A   Overcast
11:16 PM 72.7 °F 68.9 °F 88% 29.82 in 10.0 mi SW 9.2 mph 19.6 mph N/A   Overcast
11:35 PM 72.9 °F 69.4 °F 89% 29.81 in 10.0 mi SW 10.4 mph 17.3 mph N/A   Overcast
11:36 PM 72.9 °F 69.4 °F 89% 29.81 in 10.0 mi SW 10.4 mph 16.1 mph N/A   Overcast
11:55 PM 73.4 °F 69.8 °F 88% 29.81 in 10.0 mi WSW 11.5 mph 21.9 mph N/A   Mostly Cloudy